sat.trackr.live / text

‹ back to catalog

STARLINK-37564

NORAD 68902 · 2026-097H

PAYLOAD ACTIVE UNKNOWN

§ Identity

Operator
Country
US
Launch date
2026-04-30
Launch site
AFWTR
Launch vehicle
Mass (kg)
RCS (m²)

Purposes: comms

External: N2YO · Heavens-Above · Gunter

§ Orbital elements

Epoch: 2026-09-19T23:31:08.207904Z

Period
93.91 min
Inclination
97.2869°
Eccentricity
0.0002882
Mean motion
15.33422700 rev/d
Perigee alt
463.6 km
Apogee alt
467.6 km
Semi-major
6,843.7 km
B*
6.4521e-4
RAAN
97.1505°
Arg perigee
73.2158°
Mean anomaly
286.9400°
Rev number
2,201

§ Raw data

STARLINK-375641 68902U 26097H   26262.97995611  .00020799  00000+0  64521-3 0  99912 68902  97.2869  97.1505 0002882  73.2158 286.9400 15.33422700 22012

JSON: /api/v1/satellites/68902 · /tle

For live sub-satellite position, see the globe view (requires WebGL).

§ Visibility from observer

Set your observer location to see the next 7 days of passes ≥ 10°. The values pass through the URL so the page stays shareable.

No JS? Fill the form by hand. The geolocation button needs JavaScript.